This is the latest recevied weather packets stored in our database for station/object WX4HP-13. If no packets are shown the sender has not sent any weather packets the latest 10 day(s).
| Time | Temp. | Humidity | Pressure | Rain* | Wind** | Luminosity | Snow |
|---|---|---|---|---|---|---|---|
| 1777388396 | 16.67° C | 95% | 1020.3 hPa | 0 mm | - | - | - |
| 1777388095 | 16.67° C | 95% | 1020.4 hPa | 0 mm | - | - | - |
| 1777387894 | 16.11° C | 95% | 1020.5 hPa | 0 mm | - | - | - |
| 1777387796 | 16.11° C | 95% | 1020.5 hPa | 0 mm | - | - | - |
| 1777387495 | 16.11° C | 95% | 1020.7 hPa | 0.25 mm | - | - | - |
| 1777387196 | 16.11° C | 95% | 1020 hPa | 0.25 mm | - | - | - |
| 1777386894 | 16.67° C | 95% | 1019.8 hPa | 0.51 mm | - | - | - |
| 1777386596 | 16.67° C | 95% | 1019.3 hPa | 0.76 mm | - | - | - |
| 1777386296 | 16.67° C | 95% | 1019.4 hPa | 0.76 mm | - | - | - |
| 1777385996 | 16.67° C | 95% | 1020.2 hPa | 1.78 mm | - | - | - |
| 1777385694 | 16.67° C | 95% | 1020.5 hPa | 1.78 mm | - | - | - |
| 1777385396 | 17.22° C | 95% | 1020.7 hPa | 1.78 mm | - | - | - |
| 1777385096 | 17.22° C | 95% | 1020.7 hPa | 1.78 mm | - | - | - |
| 1777384795 | 17.22° C | 96% | 1020.8 hPa | 1.78 mm | - | - | - |
| 1777384494 | 17.22° C | 96% | 1020.8 hPa | 1.78 mm | - | - | - |
| 1777384194 | 17.22° C | 96% | 1020 hPa | 1.52 mm | - | - | - |
| 1777383895 | 17.22° C | 96% | 1019.8 hPa | 1.52 mm | - | - | - |
| 1777383595 | 17.22° C | 96% | 1020.7 hPa | 1.02 mm | - | - | - |
| 1777382996 | 17.22° C | 96% | 1020.5 hPa | 0.76 mm | - | - | - |
| 1777382696 | 17.22° C | 96% | 1020.6 hPa | 0 mm | - | - | - |
| 1777382395 | 17.22° C | 96% | 1021 hPa | 0 mm | - | - | - |
| 1777382096 | 17.22° C | 96% | 1020.6 hPa | 0 mm | - | - | - |
| 1777381794 | 17.22° C | 96% | 1020.6 hPa | 0.25 mm | - | - | - |
| 1777381195 | 17.22° C | 96% | 1019.8 hPa | 0.25 mm | - | - | - |
| 1777380896 | 17.22° C | 96% | 1019.9 hPa | 0.51 mm | - | - | - |
* Rain latest hour (hover to see other rain measurements)
** Current wind speed in m/s (hover to see current wind gust speed)